When you browse on this site, cookies collect data to enhance your experience and personalize the content and advertising you see.
Visit our Privacy Policy to learn more. By continuing to use the site, you agree to this use of cookies and data.
  • In Czech Republic
  • List of Countries
  • For 7 days
  • Water Temperature
  • Weather Map
  • Weather Widgets
  • user-avatar
    Login

    Hourly Weather Andora

    Today, 23 October, Wednesday

    Time Temperature Precipitation Wind Pressure Humidity
    00:00 +8°C° 8.9 mm 2 mps 618 mmHg 98%
    01:00 +7°C° 4 mm 2 mps 617 mmHg 97%
    02:00 +8°C° 4 mm 1 mps 616 mmHg 97%
    03:00 +8°C° 4 mm 1 mps 616 mmHg 96%
    04:00 +8°C° 2.3 mm 1 mps 616 mmHg 97%
    05:00 +9°C° 2.3 mm 1 mps 616 mmHg 98%
    06:00 +8°C° 2.3 mm 2 mps 616 mmHg 98%
    07:00 +8°C° 1.2 mm 2 mps 616 mmHg 97%
    08:00 +8°C° 1.2 mm 2 mps 617 mmHg 97%
    09:00 +8°C° 1.2 mm 2 mps 617 mmHg 96%
    10:00 +9°C° 0.3 mm 2 mps 617 mmHg 89%
    11:00 +9°C° 0.3 mm 2 mps 617 mmHg 81%
    12:00 +9°C° 0.3 mm 2 mps 617 mmHg 74%
    13:00 +9°C° 0 mm 2 mps 617 mmHg 72%
    14:00 +9°C° 0 mm 2 mps 617 mmHg 70%
    15:00 +9°C° 0 mm 2 mps 617 mmHg 68%
    16:00 +7°C° 0.1 mm 2 mps 617 mmHg 77%
    17:00 +6°C° 0.1 mm 2 mps 616 mmHg 85%
    18:00 +4°C° 0.1 mm 2 mps 616 mmHg 94%
    19:00 +4°C° 0 mm 2 mps 616 mmHg 94%
    20:00 +5°C° 0 mm 1 mps 617 mmHg 93%
    21:00 +5°C° 0 mm 1 mps 617 mmHg 93%
    22:00 +4°C° 0 mm 1 mps 617 mmHg 93%
    23:00 +4°C° 0 mm 1 mps 618 mmHg 93%

    Tomorrow, 24 October, Thursday

    Time Temperature Precipitation Wind Pressure Humidity
    00:00 +4°C° 0 mm 1 mps 618 mmHg 93%
    01:00 +3°C° 0 mm 1 mps 618 mmHg 92%
    02:00 +3°C° 0 mm 1 mps 618 mmHg 92%
    03:00 +2°C° 0 mm 1 mps 618 mmHg 91%
    04:00 +2°C° 0 mm 1 mps 618 mmHg 91%
    05:00 +2°C° 0 mm 1 mps 618 mmHg 90%
    06:00 +2°C° 0 mm 1 mps 618 mmHg 90%
    07:00 +4°C° 0 mm 1 mps 620 mmHg 83%
    08:00 +5°C° 0 mm 1 mps 621 mmHg 77%
    09:00 +7°C° 0 mm 1 mps 622 mmHg 71%
    10:00 +8°C° 0 mm 1 mps 623 mmHg 67%
    11:00 +9°C° 0 mm 1 mps 623 mmHg 63%
    12:00 +10°C° 0 mm 1 mps 624 mmHg 58%
    13:00 +10°C° 0 mm 1 mps 624 mmHg 60%
    14:00 +10°C° 0 mm 1 mps 624 mmHg 61%
    15:00 +9°C° 0 mm 2 mps 624 mmHg 62%
    16:00 +7°C° 0.2 mm 2 mps 624 mmHg 72%
    17:00 +7°C° 0.2 mm 1 mps 623 mmHg 82%
    18:00 +5°C° 0.2 mm 1 mps 623 mmHg 91%
    19:00 +4°C° 0.1 mm 2 mps 624 mmHg 91%
    20:00 +4°C° 0.1 mm 2 mps 624 mmHg 91%
    21:00 +4°C° 0.1 mm 2 mps 625 mmHg 91%
    22:00 +4°C° 0 mm 2 mps 625 mmHg 92%
    23:00 +3°C° 0 mm 2 mps 625 mmHg 92%

    Day after tomorrow, 25 October, Friday

    Time Temperature Precipitation Wind Pressure Humidity
    00:00 +3°C° 0 mm 2 mps 624 mmHg 92%
    01:00 +3°C° 0 mm 2 mps 624 mmHg 92%
    02:00 +3°C° 0 mm 2 mps 625 mmHg 92%
    03:00 +3°C° 0 mm 2 mps 625 mmHg 92%
    04:00 +2°C° 0 mm 2 mps 624 mmHg 90%
    05:00 +2°C° 0 mm 2 mps 624 mmHg 88%
    06:00 +2°C° 0 mm 2 mps 624 mmHg 86%
    07:00 +4°C° 0 mm 2 mps 625 mmHg 76%
    08:00 +7°C° 0 mm 2 mps 627 mmHg 66%
    09:00 +9°C° 0 mm 2 mps 628 mmHg 57%
    10:00 +10°C° 0 mm 2 mps 628 mmHg 51%
    11:00 +13°C° 0 mm 1 mps 628 mmHg 45%
    12:00 +14°C° 0 mm 1 mps 629 mmHg 39%
    13:00 +14°C° 0 mm 1 mps 628 mmHg 42%
    14:00 +14°C° 0 mm 1 mps 628 mmHg 45%
    15:00 +13°C° 0 mm 1 mps 627 mmHg 47%
    16:00 +11°C° 0 mm 1 mps 627 mmHg 52%
    17:00 +9°C° 0 mm 1 mps 626 mmHg 57%
    18:00 +7°C° 0 mm 1 mps 625 mmHg 62%
    19:00 +7°C° 0 mm 1 mps 625 mmHg 58%
    20:00 +7°C° 0 mm 1 mps 625 mmHg 55%
    21:00 +6°C° 0 mm 2 mps 626 mmHg 51%
    22:00 +6°C° 0 mm 2 mps 625 mmHg 50%
    23:00 +6°C° 0 mm 2 mps 625 mmHg 49%

    26 October, Saturday

    Time Temperature Precipitation Wind Pressure Humidity
    00:00 +6°C° 0 mm 2 mps 625 mmHg 48%
    01:00 +7°C° 0 mm 1 mps 625 mmHg 48%
    02:00 +7°C° 0 mm 1 mps 625 mmHg 48%
    03:00 +7°C° 0 mm 1 mps 625 mmHg 48%
    04:00 +7°C° 0 mm 1 mps 625 mmHg 48%
    05:00 +6°C° 0 mm 1 mps 625 mmHg 49%
    06:00 +6°C° 0 mm 1 mps 625 mmHg 49%
    07:00 +8°C° 0 mm 1 mps 626 mmHg 47%
    08:00 +11°C° 0 mm 1 mps 627 mmHg 46%
    09:00 +12°C° 0 mm 0 mps 628 mmHg 44%
    10:00 +14°C° 0 mm 1 mps 628 mmHg 42%
    11:00 +15°C° 0 mm 1 mps 629 mmHg 41%
    12:00 +16°C° 0 mm 1 mps 629 mmHg 39%
    13:00 +16°C° 0 mm 1 mps 629 mmHg 43%
    14:00 +15°C° 0 mm 1 mps 628 mmHg 46%
    15:00 +15°C° 0 mm 1 mps 628 mmHg 50%
    16:00 +13°C° 0 mm 1 mps 627 mmHg 58%
    17:00 +10°C° 0 mm 1 mps 626 mmHg 67%
    18:00 +8°C° 0 mm 1 mps 626 mmHg 75%
    19:00 +8°C° 0 mm 1 mps 626 mmHg 75%
    20:00 +7°C° 0 mm 1 mps 626 mmHg 75%
    21:00 +7°C° 0 mm 1 mps 626 mmHg 74%
    22:00 +7°C° 0 mm 1 mps 626 mmHg 74%
    23:00 +7°C° 0 mm 1 mps 626 mmHg 75%

    27 October, Sunday

    Time Temperature Precipitation Wind Pressure Humidity
    00:00 +7°C° 0 mm 1 mps 625 mmHg 75%
    01:00 +7°C° 0 mm 1 mps 625 mmHg 74%
    02:00 +6°C° 0 mm 1 mps 625 mmHg 73%
    03:00 +6°C° 0 mm 1 mps 625 mmHg 72%
    04:00 +6°C° 0 mm 1 mps 625 mmHg 70%
    05:00 +7°C° 0 mm 1 mps 625 mmHg 68%
    06:00 +7°C° 0 mm 1 mps 625 mmHg 66%
    07:00 +9°C° 0 mm 1 mps 626 mmHg 62%
    08:00 +11°C° 0 mm 1 mps 627 mmHg 58%
    09:00 +12°C° 0 mm 0 mps 628 mmHg 54%
    10:00 +14°C° 0 mm 1 mps 628 mmHg 52%
    11:00 +15°C° 0 mm 1 mps 628 mmHg 49%
    12:00 +16°C° 0 mm 1 mps 629 mmHg 47%
    13:00 +15°C° 0 mm 1 mps 628 mmHg 50%
    14:00 +15°C° 0 mm 1 mps 628 mmHg 54%
    15:00 +14°C° 0 mm 1 mps 628 mmHg 57%
    16:00 +12°C° 0 mm 1 mps 627 mmHg 66%
    17:00 +10°C° 0 mm 1 mps 626 mmHg 75%
    18:00 +8°C° 0 mm 1 mps 625 mmHg 83%
    19:00 +8°C° 0 mm 1 mps 625 mmHg 82%
    20:00 +8°C° 0 mm 1 mps 625 mmHg 81%
    21:00 +7°C° 0 mm 1 mps 625 mmHg 80%
    22:00 +7°C° 0 mm 1 mps 625 mmHg 80%
    23:00 +7°C° 0 mm 1 mps 625 mmHg 79%

    28 October, Monday

    Time Temperature Precipitation Wind Pressure Humidity
    00:00 +7°C° 0 mm 1 mps 625 mmHg 79%
    01:00 +7°C° 0 mm 1 mps 625 mmHg 77%
    02:00 +7°C° 0 mm 1 mps 624 mmHg 76%
    03:00 +7°C° 0 mm 1 mps 624 mmHg 75%
    04:00 +7°C° 0 mm 1 mps 624 mmHg 73%
    05:00 +7°C° 0 mm 1 mps 624 mmHg 71%
    06:00 +7°C° 0 mm 1 mps 624 mmHg 68%
    07:00 +9°C° 0 mm 1 mps 625 mmHg 64%
    08:00 +11°C° 0 mm 1 mps 626 mmHg 59%
    09:00 +13°C° 0 mm 1 mps 626 mmHg 54%
    10:00 +14°C° 0 mm 1 mps 627 mmHg 52%
    11:00 +15°C° 0 mm 1 mps 627 mmHg 50%
    12:00 +16°C° 0 mm 1 mps 627 mmHg 47%
    13:00 +15°C° 0 mm 1 mps 627 mmHg 50%
    14:00 +15°C° 0 mm 1 mps 627 mmHg 53%
    15:00 +15°C° 0 mm 1 mps 626 mmHg 56%
    16:00 +13°C° 0 mm 1 mps 625 mmHg 64%
    17:00 +10°C° 0 mm 1 mps 625 mmHg 73%
    18:00 +8°C° 0 mm 1 mps 624 mmHg 81%
    19:00 +8°C° 0 mm 1 mps 624 mmHg 79%
    20:00 +8°C° 0 mm 1 mps 624 mmHg 78%
    21:00 +8°C° 0 mm 1 mps 624 mmHg 76%
    22:00 +8°C° 0 mm 1 mps 624 mmHg 75%
    23:00 +8°C° 0 mm 1 mps 624 mmHg 75%

    29 October, Tuesday

    Time Temperature Precipitation Wind Pressure Humidity
    00:00 +8°C° 0 mm 1 mps 624 mmHg 74%
    01:00 +8°C° 0 mm 1 mps 624 mmHg 72%
    02:00 +8°C° 0 mm 1 mps 624 mmHg 70%
    03:00 +8°C° 0 mm 1 mps 624 mmHg 68%
    04:00 +8°C° 0 mm 1 mps 624 mmHg 66%
    05:00 +8°C° 0 mm 1 mps 624 mmHg 64%
    06:00 +8°C° 0 mm 1 mps 624 mmHg 62%
    07:00 +9°C° 0 mm 1 mps 624 mmHg 59%
    08:00 +10°C° 0 mm 0 mps 625 mmHg 56%
    09:00 +12°C° 0 mm 0 mps 626 mmHg 53%
    10:00 +12°C° 0 mm 0 mps 627 mmHg 52%
    11:00 +14°C° 0 mm 1 mps 627 mmHg 51%
    12:00 +15°C° 0 mm 1 mps 627 mmHg 49%
    13:00 +14°C° 0 mm 1 mps 627 mmHg 54%
    14:00 +14°C° 0 mm 1 mps 627 mmHg 58%
    15:00 +13°C° 0 mm 1 mps 627 mmHg 63%
    16:00 +12°C° 0 mm 1 mps 626 mmHg 70%
    17:00 +10°C° 0 mm 1 mps 626 mmHg 78%
    18:00 +8°C° 0 mm 1 mps 625 mmHg 86%
    19:00 +8°C° 0 mm 1 mps 625 mmHg 84%
    20:00 +8°C° 0 mm 1 mps 626 mmHg 82%
    21:00 +8°C° 0 mm 1 mps 626 mmHg 81%
    22:00 +8°C° 0 mm 1 mps 626 mmHg 79%
    23:00 +8°C° 0 mm 1 mps 626 mmHg 78%
    Show more